Chehalis, WA
on Wednesday, December 19, 2012

Wednesday
Previous Day Next Day
Daily Summary
 ActualAverage (KOLM)Record (KOLM)
Temperature
Mean Temperature °F 38°F  
Max Temperature 42°F 44°F 55°F (1959)
Min Temperature 35°F 32°F 11°F (2008)
Degree Days
Heating Degree Days 26 27  
Month to date heating degree days 502  
Since 1 July heating degree days 1947  
Cooling Degree Days 0 0  
Month to date cooling degree days 0  
Year to date cooling degree days 106  
Moisture
Dew Point 36°F   
Average Humidity 90    
Maximum Humidity 100    
Minimum Humidity 81    
Precipitation
Precipitation 1.31 in 0.22 in 1.38 in (1948)
Month to date precipitation 4.71  
Year to date precipitation 47.25  
Wind
Wind Speed 14 mph   
Max Wind Speed 23 mph   
Max Gust Speed 37 mph   
Visibility 7 miles   
Events Rain   

Key: T is trace of precipitation, MM is missing value
Source: NWS Daily Summary
Time(PST)TemperatureDew PointHumidity Pressure Visibility Wind DirectionWind SpeedGust SpeedPrecipitationEvents Conditions
12:15 AM 37.4°F 32.0°F 81% 29.99 in 10.0 miles South 8.1 mph - N/A   Overcast
12:35 AM 37.4°F 32.0°F 81% 29.98 in 10.0 miles South 9.2 mph 18.4 mph N/A   Overcast
12:55 AM 35.6°F 32.0°F 87% 29.96 in 10.0 miles South 11.5 mph - N/A   Overcast
1:15 AM 35.6°F 32.0°F 87% 29.95 in 10.0 miles South 12.7 mph 18.4 mph N/A   Overcast
1:35 AM 35.6°F 32.0°F 87% 29.94 in 10.0 miles South 12.7 mph 20.7 mph N/A   Overcast
1:55 AM 35.6°F 33.8°F 93% 29.93 in 10.0 miles South 12.7 mph 19.6 mph N/A   Overcast
2:15 AM 35.6°F 33.8°F 93% 29.91 in 8.0 miles South 13.8 mph 19.6 mph 0.01 in Rain Light Rain
2:35 AM 35.6°F 33.8°F 93% 29.90 in 10.0 miles South 13.8 mph 23.0 mph 0.02 in   Overcast
2:55 AM 35.6°F 33.8°F 93% 29.89 in 7.0 miles South 15.0 mph 20.7 mph 0.03 in   Overcast
3:15 AM 35.6°F 33.8°F 93% 29.88 in 8.0 miles South 12.7 mph 20.7 mph 0.01 in Rain Light Rain
3:35 AM 35.6°F 33.8°F 93% 29.88 in 9.0 miles South 13.8 mph 21.9 mph 0.01 in Rain Light Rain
3:55 AM 35.6°F 33.8°F 93% 29.87 in 5.0 miles South 11.5 mph 19.6 mph 0.01 in Rain Light Rain
4:15 AM 35.6°F 33.8°F 93% 29.87 in 6.0 miles South 15.0 mph 18.4 mph N/A Rain Light Rain
4:35 AM 35.6°F 33.8°F 93% 29.86 in 6.0 miles South 10.4 mph 16.1 mph N/A Rain Light Rain
4:55 AM 35.6°F 33.8°F 93% 29.85 in 7.0 miles South 15.0 mph 20.7 mph N/A Rain Light Rain
5:15 AM 35.6°F 33.8°F 93% 29.84 in 10.0 miles South 16.1 mph 23.0 mph N/A Rain Light Rain
5:35 AM 37.4°F 33.8°F 87% 29.83 in 10.0 miles South 19.6 mph 26.5 mph 0.01 in   Overcast
5:55 AM 37.4°F 33.8°F 87% 29.82 in 7.0 miles South 15.0 mph 24.2 mph 0.02 in Rain Light Rain
6:15 AM 37.4°F 33.8°F 87% 29.81 in 5.0 miles South 19.6 mph 29.9 mph N/A   Overcast
6:35 AM 37.4°F 33.8°F 87% 29.81 in 6.0 miles South 16.1 mph 29.9 mph 0.02 in Rain Light Rain
6:55 AM 37.4°F 33.8°F 87% 29.81 in 5.0 miles South 15.0 mph 24.2 mph 0.02 in Rain Light Rain
7:15 AM 37.4°F 33.8°F 87% 29.80 in 5.0 miles South 18.4 mph 26.5 mph 0.01 in Rain Light Rain
7:35 AM 37.4°F 33.8°F 87% 29.78 in 6.0 miles South 17.3 mph 28.8 mph 0.02 in Rain Light Rain
7:55 AM 37.4°F 33.8°F 87% 29.77 in 10.0 miles South 19.6 mph 28.8 mph 0.03 in Rain Light Rain
8:15 AM 37.4°F 33.8°F 87% 29.77 in 10.0 miles South 15.0 mph 26.5 mph N/A Rain Light Rain
8:35 AM 37.4°F 33.8°F 87% 29.76 in 8.0 miles South 20.7 mph 32.2 mph 0.01 in Rain Light Rain
8:55 AM 39.2°F 35.6°F 87% 29.76 in 9.0 miles South 17.3 mph 27.6 mph 0.02 in Rain Light Rain
9:15 AM 39.2°F 35.6°F 87% 29.75 in 9.0 miles South 18.4 mph 28.8 mph N/A   Overcast
9:35 AM 39.2°F 35.6°F 87% 29.75 in 8.0 miles South 19.6 mph 28.8 mph N/A Rain Light Rain
9:55 AM 39.2°F 35.6°F 87% 29.75 in 6.0 miles South 18.4 mph 29.9 mph 0.01 in Rain Light Rain
10:15 AM 39.2°F 35.6°F 87% 29.75 in 10.0 miles South 15.0 mph 32.2 mph N/A   Overcast
10:35 AM 39.2°F 35.6°F 87% 29.74 in 10.0 miles South 17.3 mph 25.3 mph N/A   Overcast
10:55 AM 41.0°F 35.6°F 81% 29.74 in 10.0 miles South 18.4 mph 27.6 mph N/A   Overcast
11:15 AM 41.0°F 35.6°F 81% 29.73 in 10.0 miles South 18.4 mph 29.9 mph N/A   Overcast
11:35 AM 41.0°F 35.6°F 81% 29.72 in 10.0 miles South 20.7 mph 29.9 mph N/A   Overcast
11:55 AM 41.0°F 35.6°F 81% 29.70 in 5.0 miles South 20.7 mph 29.9 mph N/A Rain Light Rain
12:15 PM 41.0°F 35.6°F 81% 29.68 in 8.0 miles South 20.7 mph 31.1 mph 0.01 in Rain Light Rain
12:35 PM 41.0°F 37.4°F 87% 29.68 in 5.0 miles South 17.3 mph 27.6 mph 0.03 in Rain Light Rain
12:55 PM 41.0°F 37.4°F 87% 29.66 in 4.0 miles South 23.0 mph 29.9 mph 0.06 in Rain Light Rain
1:15 PM 41.0°F 37.4°F 87% 29.65 in 7.0 miles South 18.4 mph 36.8 mph N/A Rain Light Rain
1:35 PM 41.0°F 37.4°F 87% 29.65 in 10.0 miles South 20.7 mph 28.8 mph N/A Rain Light Rain
1:55 PM 41.0°F 37.4°F 87% 29.65 in 5.0 miles SSW 20.7 mph 34.5 mph 0.03 in Rain Light Rain
2:15 PM 41.0°F 37.4°F 87% 29.65 in 5.0 miles South 18.4 mph 31.1 mph 0.02 in Rain Light Rain
2:35 PM 41.0°F 37.4°F 87% 29.66 in 4.0 miles South 21.9 mph 32.2 mph 0.04 in Rain Light Rain
2:55 PM 41.0°F 39.2°F 93% 29.66 in 3.0 miles SSW 16.1 mph 29.9 mph 0.06 in Rain Light Rain
3:15 PM 41.0°F 39.2°F 93% 29.67 in 2.0 miles SSW 12.7 mph 25.3 mph 0.03 in Rain Rain
3:35 PM 41.0°F 39.2°F 93% 29.67 in 2.0 miles SSW 15.0 mph 25.3 mph 0.11 in   Overcast
3:55 PM 41.0°F 37.4°F 87% 29.68 in 3.0 miles SSW 11.5 mph 18.4 mph 0.21 in Rain Rain
4:15 PM 41.0°F 39.2°F 93% 29.68 in 5.0 miles SSW 12.7 mph 21.9 mph 0.06 in   Overcast
4:35 PM 39.2°F 37.4°F 93% 29.68 in 2.5 miles SSW 18.4 mph 31.1 mph 0.22 in   Overcast
4:55 PM 39.2°F 37.4°F 93% 29.70 in 4.0 miles SSW 16.1 mph 28.8 mph 0.35 in   Overcast
5:15 PM 39.2°F 37.4°F 93% 29.69 in 5.0 miles South 16.1 mph 21.9 mph 0.04 in   Overcast
5:35 PM 39.2°F 35.6°F 87% 29.69 in 4.0 miles South 13.8 mph 26.5 mph 0.11 in Rain Rain
5:55 PM 39.2°F 35.6°F 87% 29.69 in 5.0 miles South 12.7 mph 19.6 mph 0.16 in Rain Light Rain
6:15 PM 39.2°F 37.4°F 93% 29.70 in 7.0 miles South 18.4 mph 27.6 mph 0.02 in Rain Light Rain
6:35 PM 39.2°F 37.4°F 93% 29.68 in 6.0 miles SSE 16.1 mph 26.5 mph 0.04 in Rain Light Rain
6:55 PM 39.2°F 37.4°F 93% 29.68 in 7.0 miles South 18.4 mph 25.3 mph 0.07 in Rain Light Rain
7:15 PM 39.2°F 37.4°F 93% 29.68 in 5.0 miles SSE 12.7 mph 23.0 mph 0.02 in   Overcast
7:35 PM 39.2°F 37.4°F 93% 29.67 in 8.0 miles SSE 13.8 mph 21.9 mph 0.04 in   Overcast
8:15 PM 39.2°F 37.4°F 93% 29.66 in 7.0 miles South 9.2 mph - 0.01 in   Overcast
8:35 PM 39.2°F 39.2°F 100% 29.65 in 5.0 miles South 9.2 mph - 0.04 in   Overcast
8:55 PM 39.2°F 39.2°F 100% 29.63 in 9.0 miles South 8.1 mph - 0.06 in Rain Light Rain
9:15 PM 39.2°F 39.2°F 100% 29.63 in 7.0 miles South 6.9 mph - 0.02 in Rain Light Rain
9:35 PM 39.2°F 39.2°F 100% 29.62 in 5.0 miles SSW 5.8 mph - 0.04 in Rain Light Rain
9:55 PM 41.0°F 39.2°F 93% 29.61 in 5.0 miles SSW 6.9 mph - 0.07 in Rain Light Rain
10:15 PM 41.0°F 39.2°F 93% 29.59 in 8.0 miles South 6.9 mph - N/A   Overcast
10:35 PM 41.0°F 41.0°F 100% 29.58 in 10.0 miles South 6.9 mph - 0.01 in Rain Light Rain
10:55 PM 41.0°F 41.0°F 100% 29.58 in 5.0 miles South 10.4 mph 16.1 mph 0.04 in Rain Light Rain
11:15 PM 41.0°F 41.0°F 100% 29.56 in 8.0 miles South 6.9 mph - N/A Rain Light Rain
11:35 PM 42.8°F 41.0°F 93% 29.55 in 10.0 miles South 10.4 mph 16.1 mph 0.01 in Rain Light Rain
11:55 PM 42.8°F 41.0°F 93% 29.53 in 10.0 miles South 11.5 mph - 0.02 in Rain Light Rain
Moon Phase
Dec. 19 Dec. 20 Dec. 28 Jan. 04 Jan. 11
Sunrise:07:52 AM (PST) Moon Rise:11:39 AM (PST)12/19
Sunset:04:26 PM (PST) Moon Set:No Moon Set/

Copyright © 2014 The Weather Underground, Inc.